Location: Borojevi?i
(45.0486°N, 16.2297°E)
Time: 10:43:10
(UTC+00:00)

Cosmos 1812 - Pass Details

Date: 08 August 2020
Orbit: 517 x 521 km, 82.5° (Epoch: 20 September)

Event Time Altitude Azimuth Distance (km) Brightness Sun altitude
Rises 19:16:43 0° 353° (N) 2,651 7.0 -10.8°
Reaches altitude 10° 19:18:52 10° 355° (N) 1,758 6.0 -11.1°
Maximum altitude 19:22:44 74° 81° (E) 543 2.6 -11.6°
Enters shadow 19:26:11 12° 166° (SSE) 1,597 4.7 -12.1°
